Location: *
(37.9500°N, 27.3666°E)
Time: 04:05:17
(UTC+00:00)

YAOGAN 1 - Pass Details

Date: 24 October 2021
Orbit: 618 x 620 km, 97.9° (Epoch: 03 December)

Event Time Altitude Azimuth Distance (km) Brightness Sun altitude
Rises 17:03:11 0° 168° (SSE) 2,880 5.9 -20.8°
Reaches altitude 10° 17:05:22 10° 168° (SSE) 1,979 5.0 -21.2°
Maximum altitude 17:09:40 85° 257° (WSW) 628 2.5 -22.1°
Drops below altitude 10° 17:14:01 10° 347° (NNW) 1,994 5.3 -22.9°
Sets 17:16:13 0° 348° (NNW) 2,904 6.2 -23.4°
